Printer-friendly version

IAU Minor Planet Center

Minor Planet Center

MPEC 2005-V09 : 2005 GU

The following Minor Planet Electronic Circular may be linked-to from your own Web pages, but must not otherwise be redistributed electronically.


Read MPEC 2005-V08 Read MPEC 2005-V10


M.P.E.C. 2005-V09                                Issued 2005 Nov. 2, 04:07 UT

     The Minor Planet Electronic Circulars contain information on unusual
         minor planets and routine data on comets.  They are published
   on behalf of Commission 20 of the International Astronomical Union by the
          Minor Planet Center, Smithsonian Astrophysical Observatory,
                          Cambridge, MA 02138, U.S.A.

                  Supported in part by the Brinson Foundation
                  Supported in part by the TABASGO Foundation
             Prepared using the Tamkin Foundation Computer Network

                              MPC@CFA.HARVARD.EDU
          URL http://cfa-www.harvard.edu/iau/mpc.html  ISSN 1523-6714

                                    2005 GU

                           Revision to MPEC 2005-G16

Additional Observations:
     K05G00U 3C2005 10 30.60937 08 10 29.54 +49 03 03.3                 EV009568
     K05G00U 3C2005 10 30.61136 08 10 29.58 +49 03 05.1                 EV009568
     K05G00U 3C2005 10 30.61335 08 10 29.60 +49 03 07.4                 EV009568
     K05G00U 3C2005 10 31.58421 08 10 53.41 +49 21 46.2          23.2 g EV009568
     K05G00U 3C2005 10 31.58619 08 10 53.46 +49 21 48.8          23.6 g EV009568
     K05G00U 3C2005 10 31.58820 08 10 53.49 +49 21 50.9          23.5 g EV009568

Observer details:
568 Mauna Kea.  Measurer C. Veillet.  3.6-m Canada-France-Hawaii Telescope.

First and last observations above in comparison with prediction:
Residuals in seconds of arc, reference and Delta-T
051030 568 73.7- 55.4+    051031 568 74.6- 55.6+    MPO 77856   -0.010 day

Orbital elements:
2005 GU                                                              PHA 0.018
Epoch 2005 Aug. 18.0 TT = JDT 2453600.5                 MPC
M  33.15096              (2000.0)            P               Q
n   0.50996001     Peri.  275.60646     +0.49750215     +0.84577659
a   1.5515959      Node    27.08472     -0.52811152     +0.47158625
e   0.6145835      Incl.   25.04601     -0.68817864     +0.24953629
P   1.93           H   20.0           G   0.15           U   3
Residuals in seconds of arc
050402 703  0.8-  0.3+    050403 246  0.3+  0.1+    050413 A48  0.4-  0.4+
050402 703  0.8-  0.2-    050403 246  0.5+  0.2+    050413 A48  0.3+  0.2+
050402 703  0.7-  0.1+    050403 246  0.1+  0.2+    050413 A48  0.2+  0.1-
050402 703  0.1-  1.5-    050403 246  0.5+  0.1-    050413 560  0.3+  0.0
050402 703  0.2-  0.1+    050403 246  0.2+  0.3+    050413 560  0.2-  0.9-
050402 703  0.8-  0.1+    050403 246  0.7-  1.1+    050413 560  0.1-  0.1+
050402 703  0.5-  0.4+    050404 012  1.2+  0.3-    050413 A53  0.7+  0.1-
050402 703  0.8-  0.0     050404 012  0.1-  0.2-    050413 A53  0.8+  0.2+
050402 611  1.3+  0.9+    050404 012  0.2-  0.1+    050413 A53  0.4-  0.9+
050402 151  0.1-  0.3+    050404 012  0.2-  0.1-    050413 A53  0.4-  0.4+
050402 151  0.1+  0.7+    050404 012  0.6-  0.1+    050414 185  0.0   0.3-
050402 611  1.1-  0.1+    050404 012  0.0   0.2+    050414 185  0.3+  0.0
050402 151  0.0   0.2+    050404 012  1.3+  0.3-    050414 185  0.0   0.2-
050402 611  0.8+  0.7+    050404 012  0.0   0.0     050414 185  0.2-  0.1-
050402 A17  0.1+  0.0     050404 012  0.3-  0.2-    050414 185  0.2+  0.1-
050402 J95  0.3+  0.8-    050404 084  0.2+  0.3+    050414 185  0.1+  0.1-
050402 J95  0.1-  0.1-    050404 084  0.4+  0.4+    050414 A70  0.5-  0.3-
050402 J95  0.5-  0.4-    050404 246  0.6+  0.0     050414 A70  0.1-  0.2-
050402 A17  0.2+  0.0     050405 246  0.7+  0.0     050414 A70  0.1+  0.9-
050402 246  0.7+  0.4+    050405 246  0.5+  0.0     050415 941  0.3-  0.0
050402 246  1.1+  0.3+    050405 246  0.3+  0.1-    050415 941  0.4-  0.0
050402 246  0.2+  0.0     050405 246  0.3+  0.1+    050415 941  0.3-  0.0
050402 246  0.7+  0.1+    050405 246  0.2+  0.3-    050415 941  0.4+  0.1+
050402 246  0.6+  0.1+    050406 A83  0.3+  0.4+    050415 941  0.2+  0.3+
050402 246  0.5+  0.0     050406 A83  0.1-  0.8+    050415 A48  1.2-  0.1+
050402 246  0.5+  0.0     050406 A83  0.2+  0.1+    050415 A48  0.7+  0.6+
050402 A56  1.3-  1.6-    050406 A83  0.4+  0.2-    050415 A48  0.7-  0.3+
050402 A56  0.5+  0.4-    050406 A83  0.2-  0.8+    050415 A48  0.2+  0.1+
050402 A56  0.5-  0.8-    050408 J92  0.5+  0.5+    050416 932  0.3-  0.2-
050402 A56  0.5+  0.2+    050408 J95  0.1-  0.2-    050416 932  0.1-  0.2-
050402 A56  0.3-  0.0     050408 J92  0.4+  0.3+    050416 932  0.4-  0.3-
050402 461  0.1+  0.1+    050408 J95  0.1-  0.2-    050416 A53  0.6+  0.5+
050402 461  0.2-  0.1+    050409 J95  0.1-  0.1-    050416 A53  0.1+  0.1+
050402 461  0.0   0.0     050409 J92  0.3+  0.3+    050416 A53  0.5+  0.5+
050402 461  0.2-  0.0     050410 703  0.2-  0.3-    050416 A53  0.6+  0.0
050402 461  0.4-  0.1+    050410 703  0.5+  0.6-    050416 A53  0.6+  0.6+
050403 461  0.1-  0.1+    050410 703  0.2-  0.4-    050416 A53  0.6+  0.2+
050403 461  0.1-  0.1+    050410 703  0.6-  0.3-    050418 J95  0.2-  0.3-
050403 461  0.2-  0.2+    050411 639  0.4+  0.6+    050418 J95  0.2-  0.0
050403 461  0.1-  0.2+    050411 639  0.1+  0.1+    050418 J95  0.3+  0.1-
050403 A56  0.7+  0.3+    050411 639  0.3+  0.5+    050419 J95  0.1+  0.2+
050403 A17  0.0   0.1-    050411 639  0.3+  0.7+    050419 J95  0.1+  0.2-
050403 H06  0.6+  0.3-    050411 639  0.2-  0.4+    050419 J95  0.1+  0.2-
050403 H06  0.5+  0.7-    050411 639  0.3-  0.6+    050421 198  0.7-  0.4+
050403 H06  0.4+  0.8+    050411 639  0.3-  0.4+    050421 198  0.7-  0.3+
050403 104  0.2-  0.2+    050411 639  0.4-  0.8+    050421 198  0.4-  0.4+
050403 104  0.9-  0.3+    050411 639  0.1+  1.1+    050421 198  0.1-  0.2+
050403 104  0.4-  0.3+    050411 639  0.2-  1.2+    050421 198  0.2+  0.3+
050403 A17  0.0   0.5-    050412 560  0.2+  0.5+    050421 198  1.0+  0.3+
050403 A83  0.0   0.1-    050412 560  0.1+  0.4+    050421 J95  0.1-  0.3-
050403 A83  0.3+  0.7-    050412 560  0.0   0.3+    050421 J95  0.2+  0.2+
050403 A83  0.4+  0.0     050413 704  0.6+  1.8+    050421 J95  0.0   0.4-
050403 A83  0.4+  0.2+    050413 704  0.6+  0.0     051030 568  0.1+  0.4+
050403 A17  0.3-  0.2-    050413 704  0.7+  0.5+    051030 568  0.1+  0.1-
050403 151  0.8-  0.8-    050413 704  0.1-  0.7+    051030 568  0.2-  0.1-
050403 151  0.8-  0.5-    050413 704  0.5+  0.4+    051031 568  0.2+  0.1+
050403 151  0.4-  0.3+    050413 A48  0.3-  0.7+    051031 568  0.3+  0.4+
050403 A17  0.0   0.2-    050413 A48  0.2+  0.4+    051031 568  0.2+  0.1+

Ephemeris:
2005 GU                  a,e,i = 1.55, 0.61, 25                  q = 0.5980
Date    TT    R. A. (2000) Decl.     Delta      r     Elong.  Phase     V
2005 10 27    08 08.56   +47 55.2    1.317    1.768    98.9    33.7    23.2
2005 11 06    08 12.02   +51 08.8    1.280    1.839   107.4    31.0    23.2
2005 11 16    08 08.61   +54 37.0    1.250    1.905   116.2    27.8    23.1
2005 11 26    07 56.22   +58 06.4    1.230    1.967   124.7    24.4    23.1
2005 12 06    07 32.94   +61 12.1    1.227    2.026   132.2    21.1    23.0
2005 12 16    06 59.14   +63 20.7    1.245    2.080   137.5    18.6    23.0
2005 12 26    06 19.85   +64 05.7    1.287    2.131   139.3    17.5    23.1
2006 01 05    05 43.50   +63 25.4    1.352    2.178   137.1    17.9    23.3
2006 01 15    05 16.54   +61 44.3    1.440    2.222   132.0    19.2    23.5
2006 01 25    05 00.36   +59 34.2    1.547    2.263   125.2    20.8    23.7
2006 02 04    04 53.43   +57 18.8    1.670    2.300   117.6    22.3    24.0

Gareth V. Williams           (C) Copyright 2005 MPC           M.P.E.C. 2005-V09

Read MPEC 2005-V08 Read MPEC 2005-V10


Our Web policy. Index to the CBAT/MPC/ICQ pages.


Valid HTML 4.01!